Regional Weather Roundup
Issued by NWS Grand Forks, ND

Home | Current Version | Previous Version | Graphics & Text | Print | Product List | Glossary On
Versions: 1 2 3 4 5 6 7 8 9 10 11 12 13 14 15 16 17 18 19 20 21 22 23 24 25 26 27 28 29 30 31 32 33 34 35 36 37 38 39 40 41 42 43 44 45 46 47 48 49 50
000
ASUS43 KFGF 291310
RWRFGF
PRAIRIE TO PINES  WEATHER ROUNDUP
NATIONAL WEATHER SERVICE EASTERN NORTH DAKOTA/GRAND FORKS ND
800 AM CDT SAT APR 29 2017

 **SATELLITE DATA USED TO AUGMENT SKY COVER AT AUTOMATED STATIONS**
 *****  WEATHER ACROSS EASTERN NORTH DAKOTA  *****

CITY           SKY/WX    TMP DP  RH WIND       PRES   REMARKS
GRAND FORKS    FAIR      38  29  70 CALM      30.29R
GRAND FRKS AFB FAIR      38  24  58 CALM      30.29R
DEVILS LAKE    FAIR      38  33  82 SE3       30.27R
FARGO          FAIR      34  30  85 N3        30.27R
WAHPETON ARPT  FAIR      36  28  75 CALM      30.31R
$$

 ***** WEATHER ACROSS CENTRAL AND WESTERN NORTH DAKOTA  *****

CITY           SKY/WX    TMP DP  RH WIND       PRES   REMARKS
BISMARCK       FAIR      33  27  78 CALM      30.28R
MINOT          FAIR      45  21  38 SW3       30.22R
JAMESTOWN      FAIR      35  32  88 NW3       30.26R
MINOT AFB      FAIR      42  25  50 S5        30.21R
GARRISON         N/A     34  28  79 CALM      30.24R
WILLISTON      FAIR      36  28  73 N3        30.24R
DICKINSON      FAIR      35  25  66 S3        30.22S
HETTINGER      FAIR      30  24  78 CALM      30.26R
$$

 *****  OTHER AIRPORT OBSERVATIONS IN OUR AREA  *****

CITY           SKY/WX    TMP DP  RH WIND       PRES   REMARKS
WALHALLA       NOT AVBL
GRAFTON AIRPOR FAIR      37  27  65 CALM      30.30R
VALLEY CITY AR FAIR      34  32  93 NW3       30.29R
CANDO          NOT AVBL
CAVALIER APRT  FAIR      34  27  75 CALM      30.28S
GWINNER        SUNNY     37  28  70 MISG      30.30R
SHEYENNE NWR     N/A     38  25  60 CALM      29.95S
ROLLA          FAIR      37  21  52 S8        30.24S
 ***** THE ABOVE OBSERVATIONS ARE NON NWS ARE NOT QUALITY
       CONTROLLED AND MAY MIS-REPORT RAIN FOR SNOW...
$$

  *****  WEATHER ACROSS NORTHERN MINNESOTA  *****

CITY           SKY/WX    TMP DP  RH WIND       PRES   REMARKS
FLAG ISLAND    FAIR      34  28  80 CALM      30.27R
WARROAD        FAIR      34  25  69 CALM      30.27S
ROSEAU         FAIR      34  27  75 CALM      30.27R
HALLOCK        FAIR      34  27  75 CALM      30.28S
THF RVR FALLS  FAIR      35  25  66 CALM      30.30R
BAUDETTE       FAIR      34  28  79 CALM      30.25S
WASKISH        FAIR      34  30  86 CALM      30.28R
CROOKSTON      FAIR      36  27  69 CALM      30.30R
STEPHEN NDAWN    N/A     36  27  69 CALM        N/A
GREENBUSH NDAW   N/A     34  28  80 CALM        N/A
$$
  *****  WEATHER ACROSS CENTRAL AND WEST MINNESOTA  *****

CITY           SKY/WX    TMP DP  RH WIND       PRES   REMARKS
FOSSTON        FAIR      34  27  75 CALM      30.28R
BEMIDJI        FAIR      31  26  83 CALM      30.28R
PARK RAPIDS    FAIR      34  26  72 CALM      30.26R
ELBOW LAKE     FAIR      37  27  66 SE5       30.30R
WADENA         FAIR      30  25  80 CALM      30.27R
DETROIT LAKES  FAIR      34  28  80 CALM      30.28R
MOORHEAD       FAIR      36  28  75 CALM      30.29R
FERGUS FALLS   FAIR      37  25  60 E6        30.29R
MORRIS MN      FAIR      34  28  80 CALM      30.28R
STAPLES        FAIR      30  27  86 CALM      30.29R
$$
  *****  WEATHER ELSEWHERE ACROSS MINNESOTA  *****

CITY           SKY/WX    TMP DP  RH WIND       PRES   REMARKS
DULUTH         FAIR      38  27  64 CALM      30.28R
INTRNTL FALLS  FAIR      36  27  69 E3        30.26R
ELY            FAIR      32  27  80 CALM      30.28R
CLOQUET        FAIR      36  27  69 CALM      30.28R
WHEATON        FAIR      34  27  75 CALM      30.32R
BRAINERD       FAIR      34  30  85 CALM      30.29R
HIBBING        FAIR      31  27  85 CALM      30.27R
ALEXANDRIA     FAIR      36  24  62 E5        30.29R
SAINT CLOUD    FAIR      37  28  70 SE5       30.31R
MINNEAPOLIS    PTSUNNY   40  25  55 E13       30.30R
$$

  *****  WEATHER ACROSS SOUTH DAKOTA  *****

CITY           SKY/WX    TMP DP  RH WIND       PRES   REMARKS
SIOUX FALLS    PTSUNNY   40  28  62 NE9       30.27R
BROOKINGS      FAIR      38  23  55 E13       30.28R
WATERTOWN      FAIR      34  24  67 CALM      30.28R
HURON          FAIR      29  24  82 NW3       30.29R
SISSETON         N/A     35  26  69 CALM      30.30R
ABERDEEN       FAIR      33  25  72 CALM      30.32R
MITCHELL       FAIR      34  26  72 N5        30.28R
PIERRE         FAIR      33  26  75 CALM      30.28R
MOBRIDGE       FAIR      35  27  72 CALM      30.26R
RAPID CITY     FAIR      33  24  69 W8        30.25R
$$

  *****  SOME WEATHER IN NEARBY STATES *****

CITY           SKY/WX    TMP DP  RH WIND       PRES   REMARKS
GLASGOW MT     FAIR      36  33  89 SE5       30.23R
GREAT FALLS MT FAIR      31  28  89 SW8       30.18R WCI  23
CHEYENNE WY    LGT SNOW  26  23  88 N12       30.14R FOG     WCI  16
SCOTTSBLUFF NE CLOUDY    33  26  75 N10       30.21R WCI  25
OMAHA NE       LGT RAIN  44  34  67 NE13G20   30.10F
DES MOINES IA  CLOUDY    45  36  70 NE16      30.11R
DAVENPORT IA   CLOUDY    46  41  82 NE23G29   30.10S
CHICAGO IL     CLOUDY    45  30  55 NE17G26   30.15F
EAU CLAIRE WI  FAIR      38  27  64 E9        30.28F
LA CROSSE WI   FAIR      41  27  57 E14G20    30.26R
$$

  *****  SOME NATIONAL WEATHER *****

CITY           SKY/WX    TMP DP  RH WIND       PRES   REMARKS
LA GUARDIA NY  FAIR      70  64  81 S9        30.01R
RALEIGH NC     PTSUNNY   76  70  82 SW13      30.20S
ATLANTA GA     PTSUNNY   73  67  81 SE5       30.17R
NEW ORLEANS LA CLOUDY    78  74  87 S16G26    29.92R
OKLAHOMA CITY  CLOUDY    48  46  93 MISG      29.67R
ALBUQUERQUE NM LGT SNOW  34  33  96 NW9       29.87R FOG
SALT LAKE CITY FAIR      36  28  73 SW7       30.13R
LOS ANGELES CA FAIR      65  18  16 S3        29.94R
BOISE ID       FAIR      35  30  82 CALM      30.22R
SEATTLE WA     FAIR      43  38  82 SE5       30.29F
$$

*** WEATHER ACROSS MANITOBA...SASKATCHEWAN AND ONTARIO ***
                ***ONTARIO***

CITY           SKY/WX    TMP DP  RH WIND       PRES   REMARKS
GERALDTON      MOSUNNY   30  14  51 N9G18     30.21R WCI  22
THUNDER BAY    SUNNY     32  23  69 SW6       30.31R
SIOUX LOOKOUT  MOSUNNY   28  23  80 N2        30.28R
TORONTO        PTSUNNY   45  30  57 N12G21    30.09R
BIG TROUT LK   SUNNY     27  18  69 N7        30.29R WCI  19
PICKLE LAKE    PTSUNNY   25  12  58 W5        30.27R WCI  19
DRYDEN         SUNNY     30  23  74 E2        30.27R
KENORA         MOSUNNY   36  18  48 E5        30.27R
$$
                *** MANITOBA***

CITY           SKY/WX    TMP DP  RH WIND       PRES   REMARKS
BRANDON        MOSUNNY   34  21  60 E7        30.23S
DAUPHIN        SUNNY     34  23  64 NE3       30.19F
ISLAND LAKE    PTSUNNY   27  19  74 NE5       30.33R WCI  21
PILOT MOUND      N/A     37  21  52 S6          N/A
THE PAS        PTSUNNY   37  14  38 SE9       30.20S
THOMPSON       CLOUDY    21  16  79 E5        30.34R WCI  15
WINNIPEG       SUNNY     36  23  60 CALM      30.29R
LYNN LAKE      PTSUNNY   27  23  86 E9        30.26R WCI  17
CHURCHILL      FLURRIES   7   5  92 W10       30.42S WCI  -8
GILLAM         CLOUDY    16  10  79 N6        30.39R WCI   7
$$
                ***SASKATCHEWAN***

CITY           SKY/WX    TMP DP  RH WIND       PRES   REMARKS
ESTEVAN        PTSUNNY   37  36  93 VRB2      30.22R
KINDERSLEY     PTCLDY    28  27  93 S3        30.16S
LLOYDMINSTER   MOCLDY    32  27  80 W8        30.13S WCI  25
PRINCE ALBERT  CLOUDY    39  36  87 E7        30.13R
REGINA         MOSUNNY   34  34 100 SW6       30.18R
YORKTON        SUNNY     41  37  87 S7        30.16R
N. BATTLEFORD  SUNNY     30 N/A N/A W7        30.15S WCI  23
LA RONGE       MOSUNNY   34  23  64 NE5       30.14S
SASKATOON      MOSUNNY   32  32 100 W3        30.15R
SWIFT CURRENT  CLEAR     30  27  86 SW9       30.17R WCI  22
$$
NOTE: THESE ARE AUTOMATED STATIONS WITH LIMITED QUALITY CONTROL
      "FAIR" INDICATES FEW OR NO CLOUDS BELOW 12,000 FEET WITH NO
      SIGNIFICANT WEATHER AND/OR OBSTRUCTIONS TO VISIBILITY.
      SKY/WX - SKY CONDITION AND SIGNIFICANT WEATHER.
      TMP - AIR TEMPERATURE.    DP   - DEWPOINT TEMPERATURE.
      RH  - RELATIVE HUMIDITY.  PRES - PRESSURE.
      HX  - HEAT INDEX.         WCI  - WIND CHILL INDEX.
$



USA.gov is the U.S. government's official web portal to all federal, state and local government web resources and services.